STARLINK-4798 (53858 NORAD) Tracking and Keplerian Element Data

This shows tracking and keplerian element data for the satellite.

Feedback or suggestion? Click here.




ElementValue
Catalog53858
NameSTARLINK-4798
Epoch Orbit1053
Epoch Day325.33334491
Epoch Year2022
RAAN305.5554
Inclination53.2148
Eccentricity0.0004257
Argument of Perigee6.6523
Mean Anonmoly62.9049
Mean Motion15.73208824
Decay Rate-9.436E-05
L11 53858U 22114AS 22325.33334491 -.00009436 00000+0 -62792-4 0 9996
L22 53858 53.2148 305.5554 0004257 6.6523 62.9049 15.73208824 10530



Live tracking and technical data element details for STARLINK-4798 (NORAD 53858). STARLINK-4798 can be tracked NOW for your location showing map with azimuth and elevation plus other details from your city location.







IsCatalogInMostPopularTable: catalog: 53858, numindb: -1

Insert: records affected: 1


GetName: 53858 STARLINK-4798

Hit Count: inserted at: Thu, 08 Dec 2022 09:09:47 GMT